Miscellaneous Local Product
Issued by NWS Hastings, NE

Home | Current Version | Previous Version | Text Only | Print | Product List | Glossary Off
Versions: 1 2 3 4 5 6 7 8 9 10 11 12 13 14 15 16 17 18 19 20 21 22 23 24 25 26 27 28 29 30 31 32 33 34 35 36 37 38 39 40 41 42 43 44 45 46 47 48 49 50

000
AXUS43 KGID 011302
MISGRI

GID CWA HOURLY WEATHER ROUNDUP
NATIONAL WEATHER SERVICE HASTINGS NE
800 AM CDT SAT AUG 01 2015

NOTE: "FAIR" INDICATES FEW OR NO CLOUDS BELOW 12,000 FEET WITH NO
SIGNIFICANT WEATHER AND/OR OBSTRUCTIONS TO VISIBILITY.

...SOUTH CENTRAL NEBRASKA...

CITY           SKY/WX    TMP DP  RH WIND       PRES   REMARKS
GRAND ISLAND   TSTM      64  61  90 N16G26    30.22R
HASTINGS       PTSUNNY   67  60  78 N22G31    30.16R
KEARNEY        MOSUNNY   66  57  72 NE15G28   30.17R
ORD            PTSUNNY   62  59  90 S9        30.12F
YORK           LGT RAIN  66  63  88 N8        30.12F
AURORA         TSTM      65  62  88 N17G23    30.17R
LEXINGTON      SUNNY     66  62  85 E16       30.16R
HOLDREGE       SUNNY     65  63  90 E8        30.11R
HEBRON         MOSUNNY   67  62  84 CALM      30.08F

...NEBRASKA PANHANDLE...

CITY           SKY/WX    TMP DP  RH WIND       PRES   REMARKS
CHADRON        SUNNY     62  55  77 NE7       30.06R
ALLIANCE       SUNNY     63  57  81 CALM      30.09R
SCOTTSBLUFF    SUNNY     67  59  75 NE3       30.09S
SIDNEY         SUNNY     68  60  75 SW14      30.14S

...WESTERN AND NORTH CENTRAL NEBRASKA...

CITY           SKY/WX    TMP DP  RH WIND       PRES   REMARKS
VALENTINE      LGT RAIN  69  57  65 S17G23    30.07F
AINSWORTH      PTSUNNY   64  57  77 SE10      30.11R
ONEILL         CLOUDY    69  60  71 S9        30.07R
BROKEN BOW     MOSUNNY   67  59  75 E18G26    30.14F
IMPERIAL       SUNNY     67  59  75 CALM      30.12R
NORTH PLATTE   SUNNY     72  57  59 NE7       30.10R
MCCOOK         SUNNY     70  58  65 SW8       30.09R

...EASTERN NEBRASKA...

CITY           SKY/WX    TMP DP  RH WIND       PRES   REMARKS
NORFOLK        LGT RAIN  69  64  84 SW33G40   30.01F
SO SIOUX CITY  CLOUDY    67  64  90 W3        30.05R
TEKAMAH        CLOUDY    65  63  93 CALM      30.05R
COLUMBUS       CLOUDY    68  59  73 NW10      30.16R
ALBION         RAIN      64  59  84 NW7       30.19R
OMAHA EPPLEY   CLOUDY    68  67  96 NW3       30.05R
OFFUTT AFB     CLOUDY    67  67 100 SW3       30.05R
MILLARD        CLOUDY    69  67  95 CALM      30.04S
LINCOLN        CLOUDY    72  61  68 NW8       30.09R
NEBRASKA CITY  CLOUDY    69  68  98 S6        30.05S
BEATRICE       CLOUDY    67  64  89 NW5       30.08R
FALLS CITY     MOSUNNY   72  69  90 S3        30.05R

...NORTHERN KANSAS...

CITY           SKY/WX    TMP DP  RH WIND       PRES   REMARKS
GOODLAND       SUNNY     69  62  78 SW12      30.14F
HILL CITY      SUNNY     71  67  87 CALM      30.10R
NORTON         SUNNY     70  61  73 SW7       30.08R
PHILLIPSBURG   SUNNY     73  68  83 CALM      30.08R
SMITH CENTER   SUNNY     70  66  88 NE12      30.09R
HAYS           SUNNY     70  61  73 CALM      30.10R
RUSSELL        SUNNY     71  69  93 W5        30.08R
CONCORDIA      SUNNY     75  70  84 NW8       30.08R
SALINA         SUNNY     74  70  87 S3        30.08R
TOPEKA         SUNNY     75  71  87 CALM      30.06R



USA.gov is the U.S. government's official web portal to all federal, state and local government web resources and services.